Year,Month,Day,Hour,Minute,Value (Times are PST for temperature in C)
2014,02,22,00,00,-5.60
2014,02,22,00,01,-6.20
2014,02,22,00,02,-6.20
2014,02,22,00,03,-6.20
2014,02,22,00,04,-6.20
2014,02,22,00,05,-6.20
2014,02,22,00,06,-6.20
2014,02,22,00,07,-6.20
2014,02,22,00,08,-6.20
2014,02,22,00,09,-6.20
2014,02,22,00,10,-6.20
2014,02,22,00,11,-6.20
2014,02,22,00,12,-6.20
2014,02,22,00,13,-6.20
2014,02,22,00,14,-6.20
2014,02,22,00,15,-6.20
2014,02,22,00,16,-6.10
2014,02,22,00,17,-6.10
2014,02,22,00,18,-6.10
2014,02,22,00,19,-6.10
2014,02,22,00,20,-6.10
2014,02,22,00,21,-6.10
2014,02,22,00,22,-6.10
2014,02,22,00,23,-6.10
2014,02,22,00,24,-6.10
2014,02,22,00,25,-6.10
2014,02,22,00,26,-6.10
2014,02,22,00,27,-6.10
2014,02,22,00,28,-6.10
2014,02,22,00,29,-6.10
2014,02,22,00,30,-6.10
2014,02,22,00,31,-6.30
2014,02,22,00,32,-6.30
2014,02,22,00,33,-6.30
2014,02,22,00,34,-6.30
2014,02,22,00,35,-6.30
2014,02,22,00,36,-6.30
2014,02,22,00,37,-6.30
2014,02,22,00,38,-6.30
2014,02,22,00,39,-6.30
2014,02,22,00,40,-6.30
2014,02,22,00,41,-6.30
2014,02,22,00,42,-6.30
2014,02,22,00,43,-6.30
2014,02,22,00,44,-6.30
2014,02,22,00,45,-6.30
2014,02,22,00,46,-6.20
2014,02,22,00,47,-6.20
2014,02,22,00,48,-6.20
2014,02,22,00,49,-6.20
2014,02,22,00,50,-6.20
2014,02,22,00,51,-6.20
2014,02,22,00,52,-6.20
2014,02,22,00,53,-6.20
2014,02,22,00,54,-6.20
2014,02,22,00,55,-6.20
2014,02,22,00,56,-6.20
2014,02,22,00,57,-6.20
2014,02,22,00,58,-6.20
2014,02,22,00,59,-6.20
2014,02,22,01,00,-6.20
2014,02,22,01,01,-6.00
2014,02,22,01,02,-6.00
2014,02,22,01,03,-6.00
2014,02,22,01,04,-6.00
2014,02,22,01,05,-6.00
2014,02,22,01,06,-6.00
2014,02,22,01,07,-6.00
2014,02,22,01,08,-6.00
2014,02,22,01,09,-6.00
2014,02,22,01,10,-6.00
2014,02,22,01,11,-6.00
2014,02,22,01,12,-6.00
2014,02,22,01,13,-6.00
2014,02,22,01,14,-6.00
2014,02,22,01,15,-6.00
2014,02,22,01,16,-5.60
2014,02,22,01,17,-5.60
2014,02,22,01,18,-5.60
2014,02,22,01,19,-5.60
2014,02,22,01,20,-5.60
2014,02,22,01,21,-5.60
2014,02,22,01,22,-5.60
2014,02,22,01,23,-5.60
2014,02,22,01,24,-5.60
2014,02,22,01,25,-5.60
2014,02,22,01,26,-5.60
2014,02,22,01,27,-5.60
2014,02,22,01,28,-5.60
2014,02,22,01,29,-5.60
2014,02,22,01,30,-5.60
2014,02,22,01,31,-5.60
2014,02,22,01,32,-5.60
2014,02,22,01,33,-5.60
2014,02,22,01,34,-5.60
2014,02,22,01,35,-5.60
2014,02,22,01,36,-5.60
2014,02,22,01,37,-5.60
2014,02,22,01,38,-5.60
2014,02,22,01,39,-5.60
2014,02,22,01,40,-5.60
2014,02,22,01,41,-5.60
2014,02,22,01,42,-5.60
2014,02,22,01,43,-5.60
2014,02,22,01,44,-5.60
2014,02,22,01,45,-5.60
2014,02,22,01,46,-5.60
2014,02,22,01,47,-5.60
2014,02,22,01,48,-5.60
2014,02,22,01,49,-5.60
2014,02,22,01,50,-5.60
2014,02,22,01,51,-5.60
2014,02,22,01,52,-5.60
2014,02,22,01,53,-5.60
2014,02,22,01,54,-5.60
2014,02,22,01,55,-5.60
2014,02,22,01,56,-5.60
2014,02,22,01,57,-5.60
2014,02,22,01,58,-5.60
2014,02,22,01,59,-5.60
2014,02,22,02,00,-5.60
2014,02,22,02,01,-5.70
2014,02,22,02,02,-5.70
2014,02,22,02,03,-5.70
2014,02,22,02,04,-5.70
2014,02,22,02,05,-5.70
2014,02,22,02,06,-5.70
2014,02,22,02,07,-5.70
2014,02,22,02,08,-5.70
2014,02,22,02,09,-5.70
2014,02,22,02,10,-5.70
2014,02,22,02,11,-5.70
2014,02,22,02,12,-5.70
2014,02,22,02,13,-5.70
2014,02,22,02,14,-5.70
2014,02,22,02,15,-5.70
2014,02,22,02,16,-5.80
2014,02,22,02,17,-5.80
2014,02,22,02,18,-5.80
2014,02,22,02,19,-5.80
2014,02,22,02,20,-5.80
2014,02,22,02,21,-5.80
2014,02,22,02,22,-5.80
2014,02,22,02,23,-5.80
2014,02,22,02,24,-5.80
2014,02,22,02,25,-5.80
2014,02,22,02,26,-5.80
2014,02,22,02,27,-5.80
2014,02,22,02,28,-5.80
2014,02,22,02,29,-5.80
2014,02,22,02,30,-5.80
2014,02,22,02,31,-5.90
2014,02,22,02,32,-5.90
2014,02,22,02,33,-5.90
2014,02,22,02,34,-5.90
2014,02,22,02,35,-5.90
2014,02,22,02,36,-5.90
2014,02,22,02,37,-5.90
2014,02,22,02,38,-5.90
2014,02,22,02,39,-5.90
2014,02,22,02,40,-5.90
2014,02,22,02,41,-5.90
2014,02,22,02,42,-5.90
2014,02,22,02,43,-5.90
2014,02,22,02,44,-5.90
2014,02,22,02,45,-5.90
2014,02,22,02,46,-5.80
2014,02,22,02,47,-5.80
2014,02,22,02,48,-5.80
2014,02,22,02,49,-5.80
2014,02,22,02,50,-5.80
2014,02,22,02,51,-5.80
2014,02,22,02,52,-5.80
2014,02,22,02,53,-5.80
2014,02,22,02,54,-5.80
2014,02,22,02,55,-5.80
2014,02,22,02,56,-5.80
2014,02,22,02,57,-5.80
2014,02,22,02,58,-5.80
2014,02,22,02,59,-5.80
2014,02,22,03,00,-5.80
2014,02,22,03,01,-5.90
2014,02,22,03,02,-5.90
2014,02,22,03,03,-5.90
2014,02,22,03,04,-5.90
2014,02,22,03,05,-5.90
2014,02,22,03,06,-5.90
2014,02,22,03,07,-5.90
2014,02,22,03,08,-5.90
2014,02,22,03,09,-5.90
2014,02,22,03,10,-5.90
2014,02,22,03,11,-5.90
2014,02,22,03,12,-5.90
2014,02,22,03,13,-5.90
2014,02,22,03,14,-5.90
2014,02,22,03,15,-5.90
2014,02,22,03,16,-5.90
2014,02,22,03,17,-5.90
2014,02,22,03,18,-5.90
2014,02,22,03,19,-5.90
2014,02,22,03,20,-5.90
2014,02,22,03,21,-5.90
2014,02,22,03,22,-5.90
2014,02,22,03,23,-5.90
2014,02,22,03,24,-5.90
2014,02,22,03,25,-5.90
2014,02,22,03,26,-5.90
2014,02,22,03,27,-5.90
2014,02,22,03,28,-5.90
2014,02,22,03,29,-5.90
2014,02,22,03,30,-5.90
2014,02,22,03,31,-6.10
2014,02,22,03,32,-6.10
2014,02,22,03,33,-6.10
2014,02,22,03,34,-6.10
2014,02,22,03,35,-6.10
2014,02,22,03,36,-6.10
2014,02,22,03,37,-6.10
2014,02,22,03,38,-6.10
2014,02,22,03,39,-6.10
2014,02,22,03,40,-6.10
2014,02,22,03,41,-6.10
2014,02,22,03,42,-6.10
2014,02,22,03,43,-6.10
2014,02,22,03,44,-6.10
2014,02,22,03,45,-6.10
2014,02,22,03,46,-6.10
2014,02,22,03,47,-6.00
2014,02,22,03,48,-6.00
2014,02,22,03,49,-6.00
2014,02,22,03,50,-6.00
2014,02,22,03,51,-6.00
2014,02,22,03,52,-6.00
2014,02,22,03,53,-6.00
2014,02,22,03,54,-6.00
2014,02,22,03,55,-6.00
2014,02,22,03,56,-6.00
2014,02,22,03,57,-6.00
2014,02,22,03,58,-6.00
2014,02,22,03,59,-6.00
2014,02,22,04,00,-6.00
2014,02,22,04,01,-6.00
2014,02,22,04,02,-6.00
2014,02,22,04,03,-6.00
2014,02,22,04,04,-6.00
2014,02,22,04,05,-6.00
2014,02,22,04,06,-6.00
2014,02,22,04,07,-6.00
2014,02,22,04,08,-6.00
2014,02,22,04,09,-6.00
2014,02,22,04,10,-6.00
2014,02,22,04,11,-6.00
2014,02,22,04,12,-6.00
2014,02,22,04,13,-6.00
2014,02,22,04,14,-6.00
2014,02,22,04,15,-6.00
2014,02,22,04,16,-6.00
2014,02,22,04,17,-6.00
2014,02,22,04,18,-6.00
2014,02,22,04,19,-6.00
2014,02,22,04,20,-6.00
2014,02,22,04,21,-6.00
2014,02,22,04,22,-6.00
2014,02,22,04,23,-6.00
2014,02,22,04,24,-6.00
2014,02,22,04,25,-6.00
2014,02,22,04,26,-6.00
2014,02,22,04,27,-6.00
2014,02,22,04,28,-6.00
2014,02,22,04,29,-6.00
2014,02,22,04,30,-6.00
2014,02,22,04,31,-6.00
2014,02,22,04,32,-6.00
2014,02,22,04,33,-6.00
2014,02,22,04,34,-6.00
2014,02,22,04,35,-6.00
2014,02,22,04,36,-6.00
2014,02,22,04,37,-6.00
2014,02,22,04,38,-6.00
2014,02,22,04,39,-6.00
2014,02,22,04,40,-6.00
2014,02,22,04,41,-6.00
2014,02,22,04,42,-6.00
2014,02,22,04,43,-6.00
2014,02,22,04,44,-6.00
2014,02,22,04,45,-6.00
2014,02,22,04,46,-6.10
2014,02,22,04,47,-6.10
2014,02,22,04,48,-6.10
2014,02,22,04,49,-6.10
2014,02,22,04,50,-6.10
2014,02,22,04,51,-6.10
2014,02,22,04,52,-6.10
2014,02,22,04,53,-6.10
2014,02,22,04,54,-6.10
2014,02,22,04,55,-6.10
2014,02,22,04,56,-6.10
2014,02,22,04,57,-6.10
2014,02,22,04,58,-6.10
2014,02,22,04,59,-6.10
2014,02,22,05,00,-6.10
2014,02,22,05,01,-6.10
2014,02,22,05,02,-6.10
2014,02,22,05,03,-6.10
2014,02,22,05,04,-6.10
2014,02,22,05,05,-6.10
2014,02,22,05,06,-6.10
2014,02,22,05,07,-6.10
2014,02,22,05,08,-6.10
2014,02,22,05,09,-6.10
2014,02,22,05,10,-6.10
2014,02,22,05,11,-6.10
2014,02,22,05,12,-6.10
2014,02,22,05,13,-6.10
2014,02,22,05,14,-6.10
2014,02,22,05,15,-6.10
2014,02,22,05,16,-6.10
2014,02,22,05,17,-6.10
2014,02,22,05,18,-6.10
2014,02,22,05,19,-6.10
2014,02,22,05,20,-6.10
2014,02,22,05,21,-6.10
2014,02,22,05,22,-6.10
2014,02,22,05,23,-6.10
2014,02,22,05,24,-6.10
2014,02,22,05,25,-6.10
2014,02,22,05,26,-6.10
2014,02,22,05,27,-6.10
2014,02,22,05,28,-6.10
2014,02,22,05,29,-6.10
2014,02,22,05,30,-6.10
2014,02,22,05,31,-6.10
2014,02,22,05,32,-6.10
2014,02,22,05,33,-6.10
2014,02,22,05,34,-6.10
2014,02,22,05,35,-6.10
2014,02,22,05,36,-6.10
2014,02,22,05,37,-6.10
2014,02,22,05,38,-6.10
2014,02,22,05,39,-6.10
2014,02,22,05,40,-6.10
2014,02,22,05,41,-6.10
2014,02,22,05,42,-6.10
2014,02,22,05,43,-6.10
2014,02,22,05,44,-6.10
2014,02,22,05,45,-6.10
2014,02,22,05,46,-6.00
2014,02,22,05,47,-6.00
2014,02,22,05,48,-6.00
2014,02,22,05,49,-6.00
2014,02,22,05,50,-6.00
2014,02,22,05,51,-6.00
2014,02,22,05,52,-6.00
2014,02,22,05,53,-6.00
2014,02,22,05,54,-6.00
2014,02,22,05,55,-6.00
2014,02,22,05,56,-6.00
2014,02,22,05,57,-6.00
2014,02,22,05,58,-6.00
2014,02,22,05,59,-6.00
2014,02,22,06,00,-6.00
2014,02,22,06,01,-5.90
2014,02,22,06,02,-5.90
2014,02,22,06,03,-5.90
2014,02,22,06,04,-5.90
2014,02,22,06,05,-5.90
2014,02,22,06,06,-5.90
2014,02,22,06,07,-5.90
2014,02,22,06,08,-5.90
2014,02,22,06,09,-5.90
2014,02,22,06,10,-5.90
2014,02,22,06,11,-5.90
2014,02,22,06,12,-5.90
2014,02,22,06,13,-5.90
2014,02,22,06,14,-5.90
2014,02,22,06,15,-5.90
2014,02,22,06,16,-5.70
2014,02,22,06,17,-5.70
2014,02,22,06,18,-5.70
2014,02,22,06,19,-5.70
2014,02,22,06,20,-5.70
2014,02,22,06,21,-5.70
2014,02,22,06,22,-5.70
2014,02,22,06,23,-5.70
2014,02,22,06,24,-5.70
2014,02,22,06,25,-5.70
2014,02,22,06,26,-5.70
2014,02,22,06,27,-5.70
2014,02,22,06,28,-5.70
2014,02,22,06,29,-5.70
2014,02,22,06,30,-5.70
2014,02,22,06,31,-5.50
2014,02,22,06,32,-5.50
2014,02,22,06,33,-5.50
2014,02,22,06,34,-5.50
2014,02,22,06,35,-5.50
2014,02,22,06,36,-5.50
2014,02,22,06,37,-5.50
2014,02,22,06,38,-5.50
2014,02,22,06,39,-5.50
2014,02,22,06,40,-5.50
2014,02,22,06,41,-5.50
2014,02,22,06,42,-5.50
2014,02,22,06,43,-5.50
2014,02,22,06,44,-5.50
2014,02,22,06,45,-5.50
2014,02,22,06,46,-5.20
2014,02,22,06,47,-5.20
2014,02,22,06,48,-5.20
2014,02,22,06,49,-5.20
2014,02,22,06,50,-5.20
2014,02,22,06,51,-5.20
2014,02,22,06,52,-5.20
2014,02,22,06,53,-5.20
2014,02,22,06,54,-5.20
2014,02,22,06,55,-5.20
2014,02,22,06,56,-5.20
2014,02,22,06,57,-5.20
2014,02,22,06,58,-5.20
2014,02,22,06,59,-5.20
2014,02,22,07,00,-5.20
2014,02,22,07,01,-5.20
2014,02,22,07,02,-5.20
2014,02,22,07,03,-5.20
2014,02,22,07,04,-5.20
2014,02,22,07,05,-5.20
2014,02,22,07,06,-5.20
2014,02,22,07,07,-5.20
2014,02,22,07,08,-5.20
2014,02,22,07,09,-5.20
2014,02,22,07,10,-5.20
2014,02,22,07,11,-5.20
2014,02,22,07,12,-5.20
2014,02,22,07,13,-5.20
2014,02,22,07,14,-5.20
2014,02,22,07,15,-5.20
2014,02,22,07,16,-5.20
2014,02,22,07,17,-5.30
2014,02,22,07,18,-5.30
2014,02,22,07,19,-5.30
2014,02,22,07,20,-5.30
2014,02,22,07,21,-5.30
2014,02,22,07,22,-5.30
2014,02,22,07,23,-5.30
2014,02,22,07,24,-5.30
2014,02,22,07,25,-5.30
2014,02,22,07,26,-5.30
2014,02,22,07,27,-5.30
2014,02,22,07,28,-5.30
2014,02,22,07,29,-5.30
2014,02,22,07,30,-5.30
2014,02,22,07,31,-5.30
2014,02,22,07,32,-5.30
2014,02,22,07,33,-5.30
2014,02,22,07,34,-5.30
2014,02,22,07,35,-5.30
2014,02,22,07,36,-5.30
2014,02,22,07,37,-5.30
2014,02,22,07,38,-5.30
2014,02,22,07,39,-5.30
2014,02,22,07,40,-5.30
2014,02,22,07,41,-5.30
2014,02,22,07,42,-5.30
2014,02,22,07,43,-5.30
2014,02,22,07,44,-5.30
2014,02,22,07,45,-5.30
2014,02,22,07,46,-5.30
2014,02,22,07,47,-5.30
2014,02,22,07,48,-5.30
2014,02,22,07,49,-5.30
2014,02,22,07,50,-5.30
2014,02,22,07,51,-5.30
2014,02,22,07,52,-5.30
2014,02,22,07,53,-5.30
2014,02,22,07,54,-5.30
2014,02,22,07,55,-5.30
2014,02,22,07,56,-5.30
2014,02,22,07,57,-5.30
2014,02,22,07,58,-5.30
2014,02,22,07,59,-5.30
2014,02,22,08,00,-5.30
2014,02,22,08,01,-5.30
2014,02,22,08,02,-5.30
2014,02,22,08,03,-5.30
2014,02,22,08,04,-5.30
2014,02,22,08,05,-5.30
2014,02,22,08,06,-5.30
2014,02,22,08,07,-5.30
2014,02,22,08,08,-5.30
2014,02,22,08,09,-5.30
2014,02,22,08,10,-5.30
2014,02,22,08,11,-5.30
2014,02,22,08,12,-5.30
2014,02,22,08,13,-5.30
2014,02,22,08,14,-5.30
2014,02,22,08,15,-5.30
2014,02,22,08,16,-5.20
2014,02,22,08,17,-5.20
2014,02,22,08,18,-5.20
2014,02,22,08,19,-5.20
2014,02,22,08,20,-5.20
2014,02,22,08,21,-5.20
2014,02,22,08,22,-5.20
2014,02,22,08,23,-5.20
2014,02,22,08,24,-5.20
2014,02,22,08,25,-5.20
2014,02,22,08,26,-5.20
2014,02,22,08,27,-5.20
2014,02,22,08,28,-5.20
2014,02,22,08,29,-5.20
2014,02,22,08,30,-5.20
2014,02,22,08,32,-5.20
2014,02,22,08,33,-5.20
2014,02,22,08,34,-5.20
2014,02,22,08,35,-5.20
2014,02,22,08,36,-5.20
2014,02,22,08,37,-5.20
2014,02,22,08,38,-5.20
2014,02,22,08,39,-5.20
2014,02,22,08,40,-5.20
2014,02,22,08,41,-5.20
2014,02,22,08,42,-5.20
2014,02,22,08,43,-5.20
2014,02,22,08,44,-5.20
2014,02,22,08,45,-5.20
2014,02,22,08,47,-5.20
2014,02,22,08,48,-5.20
2014,02,22,08,49,-5.20
2014,02,22,08,50,-5.20
2014,02,22,08,51,-5.20
2014,02,22,08,52,-5.20
2014,02,22,08,53,-5.20
2014,02,22,08,54,-5.20
2014,02,22,08,55,-5.20
2014,02,22,08,56,-5.20
2014,02,22,08,57,-5.20
2014,02,22,08,58,-5.20
2014,02,22,08,59,-5.20
2014,02,22,09,00,-5.20
2014,02,22,09,01,-5.10
2014,02,22,09,02,-5.10
2014,02,22,09,03,-5.10
2014,02,22,09,04,-5.10
2014,02,22,09,05,-5.10
2014,02,22,09,06,-5.10
2014,02,22,09,07,-5.10
2014,02,22,09,08,-5.10
2014,02,22,09,09,-5.10
2014,02,22,09,10,-5.10
2014,02,22,09,11,-5.10
2014,02,22,09,12,-5.10
2014,02,22,09,13,-5.10
2014,02,22,09,14,-5.10
2014,02,22,09,15,-5.10
2014,02,22,09,17,-4.90
2014,02,22,09,18,-4.90
2014,02,22,09,19,-4.90
2014,02,22,09,20,-4.90
2014,02,22,09,21,-4.90
2014,02,22,09,22,-4.90
2014,02,22,09,23,-4.90
2014,02,22,09,24,-4.90
2014,02,22,09,25,-4.90
2014,02,22,09,26,-4.90
2014,02,22,09,27,-4.90
2014,02,22,09,28,-4.90
2014,02,22,09,29,-4.90
2014,02,22,09,30,-4.90
2014,02,22,09,31,-4.80
2014,02,22,09,32,-4.80
2014,02,22,09,33,-4.80
2014,02,22,09,34,-4.80
2014,02,22,09,35,-4.80
2014,02,22,09,36,-4.80
2014,02,22,09,37,-4.80
2014,02,22,09,38,-4.80
2014,02,22,09,39,-4.80
2014,02,22,09,40,-4.80
2014,02,22,09,41,-4.80
2014,02,22,09,42,-4.80
2014,02,22,09,43,-4.80
2014,02,22,09,44,-4.80
2014,02,22,09,45,-4.80
2014,02,22,09,46,-4.70
2014,02,22,09,47,-4.70
2014,02,22,09,48,-4.70
2014,02,22,09,49,-4.70
2014,02,22,09,50,-4.70
2014,02,22,09,51,-4.70
2014,02,22,09,52,-4.70
2014,02,22,09,53,-4.70
2014,02,22,09,54,-4.70
2014,02,22,09,55,-4.70
2014,02,22,09,56,-4.70
2014,02,22,09,57,-4.70
2014,02,22,09,58,-4.70
2014,02,22,09,59,-4.70
2014,02,22,10,00,-4.70
2014,02,22,10,01,-4.60
2014,02,22,10,02,-4.60
2014,02,22,10,03,-4.60
2014,02,22,10,04,-4.60
2014,02,22,10,05,-4.60
2014,02,22,10,06,-4.60
2014,02,22,10,07,-4.60
2014,02,22,10,08,-4.60
2014,02,22,10,09,-4.60
2014,02,22,10,10,-4.60
2014,02,22,10,11,-4.60
2014,02,22,10,12,-4.60
2014,02,22,10,13,-4.60
2014,02,22,10,14,-4.60
2014,02,22,10,15,-4.60
2014,02,22,10,16,-4.60
2014,02,22,10,17,-4.60
2014,02,22,10,18,-4.60
2014,02,22,10,19,-4.60
2014,02,22,10,20,-4.60
2014,02,22,10,21,-4.60
2014,02,22,10,22,-4.60
2014,02,22,10,23,-4.60
2014,02,22,10,24,-4.60
2014,02,22,10,25,-4.60
2014,02,22,10,26,-4.60
2014,02,22,10,27,-4.60
2014,02,22,10,28,-4.60
2014,02,22,10,29,-4.60
2014,02,22,10,30,-4.60
2014,02,22,10,31,-4.40
2014,02,22,10,32,-4.40
2014,02,22,10,33,-4.40
2014,02,22,10,34,-4.40
2014,02,22,10,35,-4.40
2014,02,22,10,36,-4.40
2014,02,22,10,37,-4.40
2014,02,22,10,38,-4.40
2014,02,22,10,39,-4.40
2014,02,22,10,40,-4.40
2014,02,22,10,41,-4.40
2014,02,22,10,42,-4.40
2014,02,22,10,43,-4.40
2014,02,22,10,44,-4.40
2014,02,22,10,45,-4.40
2014,02,22,10,46,-4.40
2014,02,22,10,47,-4.40
2014,02,22,10,48,-4.40
2014,02,22,10,49,-4.40
2014,02,22,10,50,-4.40
2014,02,22,10,51,-4.40
2014,02,22,10,52,-4.40
2014,02,22,10,53,-4.40
2014,02,22,10,54,-4.40
2014,02,22,10,55,-4.40
2014,02,22,10,56,-4.40
2014,02,22,10,57,-4.40
2014,02,22,10,58,-4.40
2014,02,22,10,59,-4.40
2014,02,22,11,00,-4.40
2014,02,22,11,01,-4.20
2014,02,22,11,02,-4.20
2014,02,22,11,03,-4.20
2014,02,22,11,04,-4.20
2014,02,22,11,05,-4.20
2014,02,22,11,06,-4.20
2014,02,22,11,07,-4.20
2014,02,22,11,08,-4.20
2014,02,22,11,09,-4.20
2014,02,22,11,10,-4.20
2014,02,22,11,11,-4.20
2014,02,22,11,12,-4.20
2014,02,22,11,13,-4.20
2014,02,22,11,14,-4.20
2014,02,22,11,15,-4.20
2014,02,22,11,16,-4.10
2014,02,22,11,17,-4.10
2014,02,22,11,18,-4.10
2014,02,22,11,19,-4.10
2014,02,22,11,20,-4.10
2014,02,22,11,21,-4.10
2014,02,22,11,22,-4.10
2014,02,22,11,23,-4.10
2014,02,22,11,24,-4.10
2014,02,22,11,25,-4.10
2014,02,22,11,26,-4.10
2014,02,22,11,27,-4.10
2014,02,22,11,28,-4.10
2014,02,22,11,29,-4.10
2014,02,22,11,30,-4.10
2014,02,22,11,31,-4.00
2014,02,22,11,32,-4.00
2014,02,22,11,33,-4.00
2014,02,22,11,34,-4.00
2014,02,22,11,35,-4.00
2014,02,22,11,36,-4.00
2014,02,22,11,37,-4.00
2014,02,22,11,38,-4.00
2014,02,22,11,39,-4.00
2014,02,22,11,40,-4.00
2014,02,22,11,41,-4.00
2014,02,22,11,42,-4.00
2014,02,22,11,43,-4.00
2014,02,22,11,44,-4.00
2014,02,22,11,45,-4.00
2014,02,22,11,46,-3.90
2014,02,22,11,47,-3.90
2014,02,22,11,48,-3.90
2014,02,22,11,49,-3.90
2014,02,22,11,50,-3.90
2014,02,22,11,51,-3.90
2014,02,22,11,52,-3.90
2014,02,22,11,53,-3.90
2014,02,22,11,54,-3.90
2014,02,22,11,55,-3.90
2014,02,22,11,56,-3.90
2014,02,22,11,57,-3.90
2014,02,22,11,58,-3.90
2014,02,22,11,59,-3.90
2014,02,22,12,00,-3.90
2014,02,22,12,01,-3.90
2014,02,22,12,02,-3.90
2014,02,22,12,03,-3.90
2014,02,22,12,04,-3.90
2014,02,22,12,05,-3.90
2014,02,22,12,06,-3.90
2014,02,22,12,07,-3.90
2014,02,22,12,08,-3.90
2014,02,22,12,09,-3.90
2014,02,22,12,10,-3.90
2014,02,22,12,11,-3.90
2014,02,22,12,12,-3.90
2014,02,22,12,13,-3.90
2014,02,22,12,14,-3.90
2014,02,22,12,15,-3.90
2014,02,22,12,16,-3.90
2014,02,22,12,17,-3.90
2014,02,22,12,18,-3.90
2014,02,22,12,19,-3.90
2014,02,22,12,20,-3.90
2014,02,22,12,21,-3.90
2014,02,22,12,22,-3.90
2014,02,22,12,23,-3.90
2014,02,22,12,24,-3.90
2014,02,22,12,25,-3.90
2014,02,22,12,26,-3.90
2014,02,22,12,27,-3.90
2014,02,22,12,28,-3.90
2014,02,22,12,29,-3.90
2014,02,22,12,30,-3.90
2014,02,22,12,31,-4.00
2014,02,22,12,32,-4.00
2014,02,22,12,33,-4.00
2014,02,22,12,34,-4.00
2014,02,22,12,35,-4.00
2014,02,22,12,36,-4.00
2014,02,22,12,37,-4.00
2014,02,22,12,38,-4.00
2014,02,22,12,39,-4.00
2014,02,22,12,40,-4.00
2014,02,22,12,41,-4.00
2014,02,22,12,42,-4.00
2014,02,22,12,43,-4.00
2014,02,22,12,44,-4.00
2014,02,22,12,45,-4.00
2014,02,22,12,46,-3.90
2014,02,22,12,47,-3.90
2014,02,22,12,48,-3.90
2014,02,22,12,49,-3.90
2014,02,22,12,50,-3.90
2014,02,22,12,51,-3.90
2014,02,22,12,52,-3.90
2014,02,22,12,53,-3.90
2014,02,22,12,54,-3.90
2014,02,22,12,55,-3.90
2014,02,22,12,56,-3.90
2014,02,22,12,57,-3.90
2014,02,22,12,58,-3.90
2014,02,22,12,59,-3.90
2014,02,22,13,00,-3.90
2014,02,22,13,01,-3.80
2014,02,22,13,02,-3.80
2014,02,22,13,03,-3.80
2014,02,22,13,04,-3.80
2014,02,22,13,05,-3.80
2014,02,22,13,06,-3.80
2014,02,22,13,07,-3.80
2014,02,22,13,08,-3.80
2014,02,22,13,09,-3.80
2014,02,22,13,10,-3.80
2014,02,22,13,11,-3.80
2014,02,22,13,12,-3.80
2014,02,22,13,13,-3.80
2014,02,22,13,14,-3.80
2014,02,22,13,15,-3.80
2014,02,22,13,17,-3.60
2014,02,22,13,18,-3.60
2014,02,22,13,19,-3.60
2014,02,22,13,20,-3.60
2014,02,22,13,21,-3.60
2014,02,22,13,22,-3.60
2014,02,22,13,23,-3.60
2014,02,22,13,24,-3.60
2014,02,22,13,25,-3.60
2014,02,22,13,26,-3.60
2014,02,22,13,27,-3.60
2014,02,22,13,28,-3.60
2014,02,22,13,29,-3.60
2014,02,22,13,30,-3.60
2014,02,22,13,31,-3.80
2014,02,22,13,32,-3.80
2014,02,22,13,33,-3.80
2014,02,22,13,34,-3.80
2014,02,22,13,35,-3.80
2014,02,22,13,36,-3.80
2014,02,22,13,37,-3.80
2014,02,22,13,38,-3.80
2014,02,22,13,39,-3.80
2014,02,22,13,40,-3.80
2014,02,22,13,41,-3.80
2014,02,22,13,42,-3.80
2014,02,22,13,43,-3.80
2014,02,22,13,44,-3.80
2014,02,22,13,45,-3.80
2014,02,22,13,46,-3.80
2014,02,22,13,47,-3.80
2014,02,22,13,48,-3.80
2014,02,22,13,49,-3.80
2014,02,22,13,50,-3.80
2014,02,22,13,51,-3.80
2014,02,22,13,52,-3.80
2014,02,22,13,53,-3.80
2014,02,22,13,54,-3.80
2014,02,22,13,55,-3.80
2014,02,22,13,56,-3.80
2014,02,22,13,57,-3.80
2014,02,22,13,58,-3.80
2014,02,22,13,59,-3.80
2014,02,22,14,00,-3.80
2014,02,22,14,01,-3.80
2014,02,22,14,02,-3.80
2014,02,22,14,03,-3.80
2014,02,22,14,04,-3.80
2014,02,22,14,05,-3.80
2014,02,22,14,06,-3.80
2014,02,22,14,07,-3.80
2014,02,22,14,08,-3.80
2014,02,22,14,09,-3.80
2014,02,22,14,10,-3.80
2014,02,22,14,11,-3.80
2014,02,22,14,12,-3.80
2014,02,22,14,13,-3.80
2014,02,22,14,14,-3.80
2014,02,22,14,15,-3.80
2014,02,22,14,16,-3.80
2014,02,22,14,17,-3.80
2014,02,22,14,18,-3.80
2014,02,22,14,19,-3.80
2014,02,22,14,20,-3.80
2014,02,22,14,21,-3.80
2014,02,22,14,22,-3.80
2014,02,22,14,23,-3.80
2014,02,22,14,24,-3.80
2014,02,22,14,25,-3.80
2014,02,22,14,26,-3.80
2014,02,22,14,27,-3.80
2014,02,22,14,28,-3.80
2014,02,22,14,29,-3.80
2014,02,22,14,30,-3.80
2014,02,22,14,31,-3.90
2014,02,22,14,32,-3.90
2014,02,22,14,33,-3.90
2014,02,22,14,34,-3.90
2014,02,22,14,35,-3.90
2014,02,22,14,36,-3.90
2014,02,22,14,37,-3.90
2014,02,22,14,38,-3.90
2014,02,22,14,39,-3.90
2014,02,22,14,40,-3.90
2014,02,22,14,41,-3.90
2014,02,22,14,42,-3.90
2014,02,22,14,43,-3.90
2014,02,22,14,44,-3.90
2014,02,22,14,45,-3.90
2014,02,22,14,46,-3.90
2014,02,22,14,47,-3.90
2014,02,22,14,48,-3.90
2014,02,22,14,49,-3.90
2014,02,22,14,50,-3.90
2014,02,22,14,51,-3.90
2014,02,22,14,52,-3.90
2014,02,22,14,53,-3.90
2014,02,22,14,54,-3.90
2014,02,22,14,55,-3.90
2014,02,22,14,56,-3.90
2014,02,22,14,57,-3.90
2014,02,22,14,58,-3.90
2014,02,22,14,59,-3.90
2014,02,22,15,00,-3.90
2014,02,22,15,02,-4.20
2014,02,22,15,03,-4.20
2014,02,22,15,04,-4.20
2014,02,22,15,05,-4.20
2014,02,22,15,06,-4.20
2014,02,22,15,07,-4.20
2014,02,22,15,08,-4.20
2014,02,22,15,09,-4.20
2014,02,22,15,10,-4.20
2014,02,22,15,11,-4.20
2014,02,22,15,12,-4.20
2014,02,22,15,13,-4.20
2014,02,22,15,14,-4.20
2014,02,22,15,15,-4.20
2014,02,22,15,16,-4.40
2014,02,22,15,17,-4.40
2014,02,22,15,18,-4.40
2014,02,22,15,19,-4.40
2014,02,22,15,20,-4.40
2014,02,22,15,21,-4.40
2014,02,22,15,22,-4.40
2014,02,22,15,23,-4.40
2014,02,22,15,24,-4.40
2014,02,22,15,25,-4.40
2014,02,22,15,26,-4.40
2014,02,22,15,27,-4.40
2014,02,22,15,28,-4.40
2014,02,22,15,29,-4.40
2014,02,22,15,30,-4.40
2014,02,22,15,31,-4.50
2014,02,22,15,32,-4.50
2014,02,22,15,33,-4.50
2014,02,22,15,34,-4.50
2014,02,22,15,35,-4.50
2014,02,22,15,36,-4.50
2014,02,22,15,37,-4.50
2014,02,22,15,38,-4.50
2014,02,22,15,39,-4.50
2014,02,22,15,40,-4.50
2014,02,22,15,41,-4.50
2014,02,22,15,42,-4.50
2014,02,22,15,43,-4.50
2014,02,22,15,44,-4.50
2014,02,22,15,45,-4.50
2014,02,22,15,46,-4.50
2014,02,22,15,47,-4.30
2014,02,22,15,48,-4.30
2014,02,22,15,49,-4.30
2014,02,22,15,50,-4.30
2014,02,22,15,51,-4.30
2014,02,22,15,52,-4.30
2014,02,22,15,53,-4.30
2014,02,22,15,54,-4.30
2014,02,22,15,55,-4.30
2014,02,22,15,56,-4.30
2014,02,22,15,57,-4.30
2014,02,22,15,58,-4.30
2014,02,22,15,59,-4.30
2014,02,22,16,00,-4.30
2014,02,22,16,01,-4.20
2014,02,22,16,02,-4.20
2014,02,22,16,03,-4.20
2014,02,22,16,04,-4.20
2014,02,22,16,05,-4.20
2014,02,22,16,06,-4.20
2014,02,22,16,07,-4.20
2014,02,22,16,08,-4.20
2014,02,22,16,09,-4.20
2014,02,22,16,10,-4.20
2014,02,22,16,11,-4.20
2014,02,22,16,12,-4.20
2014,02,22,16,13,-4.20
2014,02,22,16,14,-4.20
2014,02,22,16,15,-4.20
2014,02,22,16,16,-4.20
2014,02,22,16,17,-4.20
2014,02,22,16,18,-4.20
2014,02,22,16,19,-4.20
2014,02,22,16,20,-4.20
2014,02,22,16,21,-4.20
2014,02,22,16,22,-4.20
2014,02,22,16,23,-4.20
2014,02,22,16,24,-4.20
2014,02,22,16,25,-4.20
2014,02,22,16,26,-4.20
2014,02,22,16,27,-4.20
2014,02,22,16,28,-4.20
2014,02,22,16,29,-4.20
2014,02,22,16,30,-4.20
2014,02,22,16,31,-4.30
2014,02,22,16,32,-4.30
2014,02,22,16,33,-4.30
2014,02,22,16,34,-4.30
2014,02,22,16,35,-4.30
2014,02,22,16,36,-4.30
2014,02,22,16,37,-4.30
2014,02,22,16,38,-4.30
2014,02,22,16,39,-4.30
2014,02,22,16,40,-4.30
2014,02,22,16,41,-4.30
2014,02,22,16,42,-4.30
2014,02,22,16,43,-4.30
2014,02,22,16,44,-4.30
2014,02,22,16,45,-4.30
2014,02,22,16,46,-4.30
2014,02,22,16,47,-4.30
2014,02,22,16,48,-4.30
2014,02,22,16,49,-4.30
2014,02,22,16,50,-4.30
2014,02,22,16,51,-4.30
2014,02,22,16,52,-4.30
2014,02,22,16,53,-4.30
2014,02,22,16,54,-4.30
2014,02,22,16,55,-4.30
2014,02,22,16,56,-4.30
2014,02,22,16,57,-4.30
2014,02,22,16,58,-4.30
2014,02,22,16,59,-4.30
2014,02,22,17,00,-4.30
2014,02,22,17,01,-4.40
2014,02,22,17,02,-4.40
2014,02,22,17,03,-4.40
2014,02,22,17,04,-4.40
2014,02,22,17,05,-4.40
2014,02,22,17,06,-4.40
2014,02,22,17,07,-4.40
2014,02,22,17,08,-4.40
2014,02,22,17,09,-4.40
2014,02,22,17,10,-4.40
2014,02,22,17,11,-4.40
2014,02,22,17,12,-4.40
2014,02,22,17,13,-4.40
2014,02,22,17,14,-4.40
2014,02,22,17,15,-4.40
2014,02,22,17,16,-4.30
2014,02,22,17,17,-4.30
2014,02,22,17,18,-4.30
2014,02,22,17,19,-4.30
2014,02,22,17,20,-4.30
2014,02,22,17,21,-4.30
2014,02,22,17,22,-4.30
2014,02,22,17,23,-4.30
2014,02,22,17,24,-4.30